Regional Weather Roundup
Issued by NWS

Home | Current Version | Previous Version | Graphics & Text | Print | Product List | Glossary Off
Versions: 1 2 3 4 5 6 7 8 9 10 11 12 13 14 15 16 17 18 19 20 21 22 23 24 25 26 27 28 29 30 31 32 33 34 35 36 37 38 39 40 41 42 43 44 45 46 47 48 49 50

000
ASUS43 KDMX 290307
RWRIA

WEATHER ROUNDUP FOR IOWA
NATIONAL WEATHER SERVICE DES MOINES IA
1000 PM CDT FRI AUG 28 2015

NOTE: "FAIR" INDICATES FEW OR NO CLOUDS BELOW 12,000 FEET WITH NO
SIGNIFICANT WEATHER AND/OR OBSTRUCTIONS TO VISIBILITY.

* - THESE STATIONS ARE NOT NWS STATIONS...THUS NOT UNDER NWS
QUALITY CONTROL.  THEY ALSO DO NOT REPORT WEATHER SUCH
AS PRECIPITATION OR FOG.

IAZ001>003-012>014-020>022-031>034-043>046-290400-
   NORTHWEST IOWA

CITY           SKY/WX    TMP DP  RH WIND       PRES   REMARKS
CARROLL *      CLOUDY    63  63 100 N12G18    29.94R FOG
CHEROKEE *     CLOUDY    61  61 100 NE7       29.99S
DENISON *      CLOUDY    61  61 100 N15G21    29.93R FOG
LE MARS *      CLOUDY    61  59  94 NE7G14    30.02R
ORANGE CITY *  CLOUDY    61  57  88 NE6       30.01R
SHELDON *      CLOUDY    61  57  88 NE6       30.00R
SIOUX CITY     CLOUDY    63  57  81 NE15      29.99R
SPENCER        CLOUDY    61  56  83 NE9       30.00R
STORM LAKE *   CLOUDY    59  59 100 NE12      29.99R
$$

IAZ055>058-069>071-079>083-090>094-290400-
   SOUTHWEST IOWA

CITY           SKY/WX    TMP DP  RH WIND       PRES   REMARKS
ATLANTIC *     CLOUDY    68  68 100 CALM      29.92R
AUDUBON *      CLOUDY    64  63  94 N8        29.94R FOG
CLARINDA *     CLOUDY    70  70 100 CALM      29.94R FOG
COUNCIL BLFS * CLOUDY    64  63  94 NW13G21   29.94R FOG
CRESTON *      CLOUDY    70  70 100 CALM      29.93R FOG
HARLAN  *      CLOUDY    64 N/A N/A N8        29.96R HAZE
LAMONI         CLOUDY    72  66  81 S10       29.93R
RED OAK *      CLOUDY    68  66  94 W7        29.93R
SHENANDOAH *   CLOUDY    68  66  94 NW3       29.94R
$$

IAZ047>049-059>061-072>074-084-290400-
   CENTRAL IOWA

CITY           SKY/WX    TMP DP  RH WIND       PRES   REMARKS
AMES           CLOUDY    68  68 100 CALM      29.91R FOG
ANKENY *       LGT RAIN  70  70 100 S5        29.89F
CHARITON *     CLOUDY    70  66  88 S9        29.92S
DES MOINES     CLOUDY    72  67  84 SE6       29.89S
GRINNELL*      DRIZZLE   64  64 100 SE8       29.93F
KNOXVILLE *    CLOUDY    70  66  88 S7        29.90R
MARSHALLTOWN   CLOUDY    66  64  93 SE10      29.91S
PELLA *        CLOUDY    68  68 100 CALM      29.93R
PERRY *        CLOUDY    68  68 100 N7        29.91R FOG
$$

IAZ004>006-015-016-023>025-035-036-290400-
   NORTH CENTRAL IOWA

CITY           SKY/WX    TMP DP  RH WIND       PRES   REMARKS
ALGONA *       CLOUDY    59  59 100 NE7       29.99S
CLARION *      CLOUDY    61  59  94 NE10      29.96R FOG
ESTHERVILLE    CLOUDY    58  57  97 NE7       30.00S
FORT DODGE *   CLOUDY    61  57  88 N9        29.96R
MASON CITY     CLOUDY    59  59 100 NE10      29.99R
FOREST CITY *  CLOUDY    59  57  94 E9        29.98F
IOWA FALLS *   HVY RAIN  64  63  94 N5        29.94R
$$

IAZ007>011-017>019-026>030-037>042-050>054-066-290400-
   NORTHEAST IOWA

CITY           SKY/WX    TMP DP  RH WIND       PRES   REMARKS
CEDAR RAPIDS   TSTM      65  65 100 SE13      29.94F
CHARLES CITY * CLOUDY    61  61 100 E13       29.98S FOG
CLINTON *      CLOUDY    66  63  88 E9        30.05R
DECORAH *      CLOUDY    59  59 100 E13       30.00S FOG
DUBUQUE        LGT RAIN  64 N/A N/A SE18G28   30.00F
MONTICELLO *   LGT RAIN  66  64  94 SE13G21   29.97S
OELWEIN *        N/A     64  64 100 SE6       29.96S FOG
WATERLOO       LGT RAIN  65  64  97 S7        29.92S
$$

IAZ064-065-067-068-078-290400-
   EAST CENTRAL IOWA

CITY           SKY/WX    TMP DP  RH WIND       PRES   REMARKS
DAVENPORT      CLOUDY    67  64  90 NE6       30.03R
IOWA CITY      LGT RAIN  66  65  96 SE12G22   29.97F
MT. PLEASANT * CLOUDY    72  61  68 S9        29.97R
MUSCATINE *    CLOUDY    68  63  83 NE8       30.02R
QUAD CITIES    CLOUDY    69  63  81 NE3       30.01R
$$

IAZ062-063-075>077-085>089-095>099-290400-
   SOUTHEAST IOWA

CITY           SKY/WX    TMP DP  RH WIND       PRES   REMARKS
BURLINGTON     CLOUDY    71  63  75 S10       29.98R
FAIRFIELD *    CLOUDY    70  63  78 SE9       29.95R
FORT MADISON * CLOUDY    70  63  78 SE8       29.98S
KEOKUK *       CLOUDY    72  64  78 SE8       29.96S
OSKALOOSA *    LGT RAIN  68  64  88 NE3       29.94R
CENTERVILLE *  PTCLDY    70  66  88 S7        29.96R
OTTUMWA        CLOUDY    70  65  84 S10       29.91R
WASHINGTON *     N/A    N/A N/A N/A MISG        N/A
$$

ABBREVIATIONS USED IN REMARKS
   TC - TEMPERATURES IN CELSIUS
  WCI - WIND CHILL INDEX
   HX - HEAT INDEX
  VSB - VISIBILITY
$$



USA.gov is the U.S. government's official web portal to all federal, state and local government web resources and services.